Time,TemperatureF,DewpointF,PressureIn,WindDirection,WindDirectionDegrees,WindSpeedMPH,WindSpeedGustMPH,Humidity,HourlyPrecipIn,Conditions,Clouds,dailyrainin,SoftwareType,DateUTC
2013-01-01 00:22:00,25.5,24.0,29.71,SW,233,3.0,7.0,94,0.00,,,0.00,weatherlink.com 1.10,2013-01-01 05:22:00,
2013-01-01 00:37:00,25.4,24.0,29.70,SSE,159,7.0,8.0,94,0.00,,,0.00,weatherlink.com 1.10,2013-01-01 05:37:00,
2013-01-01 00:52:00,25.4,24.0,29.70,SW,236,3.0,4.0,94,0.00,,,0.00,weatherlink.com 1.10,2013-01-01 05:52:00,
2013-01-01 01:07:00,25.4,24.0,29.71,West,259,0.0,3.0,94,0.00,,,0.00,weatherlink.com 1.10,2013-01-01 06:07:00,
2013-01-01 01:22:00,25.4,24.0,29.71,SW,226,3.0,8.0,94,0.00,,,0.00,weatherlink.com 1.10,2013-01-01 06:22:00,
2013-01-01 01:37:00,25.3,24.0,29.71,SW,231,0.0,6.0,94,0.00,,,0.00,weatherlink.com 1.10,2013-01-01 06:37:00,
2013-01-01 01:52:00,25.2,24.0,29.71,West,264,1.0,3.0,93,0.00,,,0.00,weatherlink.com 1.10,2013-01-01 06:52:00,
2013-01-01 02:07:00,25.2,24.0,29.71,SSE,167,1.0,7.0,93,0.00,,,0.00,weatherlink.com 1.10,2013-01-01 07:07:00,
2013-01-01 02:23:00,25.3,23.0,29.71,WSW,251,3.0,12.0,91,0.00,,,0.00,weatherlink.com 1.10,2013-01-01 07:23:00,
2013-01-01 02:38:00,25.1,23.0,29.71,SSE,158,2.0,5.0,91,0.00,,,0.00,weatherlink.com 1.10,2013-01-01 07:38:00,
2013-01-01 02:53:00,25.0,23.0,29.70,SSW,207,1.0,3.0,91,0.00,,,0.00,weatherlink.com 1.10,2013-01-01 07:53:00,
2013-01-01 03:08:00,24.9,23.0,29.71,WNW,294,2.0,4.0,91,0.00,,,0.00,weatherlink.com 1.10,2013-01-01 08:08:00,
2013-01-01 03:23:00,24.8,23.0,29.73,WNW,294,5.0,7.0,92,0.00,,,0.00,weatherlink.com 1.10,2013-01-01 08:23:00,
2013-01-01 03:38:00,24.3,23.0,29.72,WNW,293,7.0,11.0,93,0.00,,,0.00,weatherlink.com 1.10,2013-01-01 08:38:00,
2013-01-01 03:53:00,24.0,22.0,29.73,WSW,256,2.0,10.0,90,0.00,,,0.00,weatherlink.com 1.10,2013-01-01 08:53:00,
2013-01-01 04:08:00,23.9,20.0,29.73,NE,43,3.0,10.0,86,0.00,,,0.00,weatherlink.com 1.10,2013-01-01 09:08:00,
2013-01-01 04:23:00,23.4,19.0,29.74,NNW,333,13.0,14.0,82,0.00,,,0.00,weatherlink.com 1.10,2013-01-01 09:23:00,
2013-01-01 04:38:00,23.0,18.0,29.74,NE,44,8.0,15.0,80,0.00,,,0.00,weatherlink.com 1.10,2013-01-01 09:38:00,
2013-01-01 04:53:00,22.6,17.0,29.74,NW,306,8.0,16.0,79,0.00,,,0.00,weatherlink.com 1.10,2013-01-01 09:53:00,
2013-01-01 05:08:00,21.6,18.0,29.74,NW,323,2.0,17.0,85,0.00,,,0.00,weatherlink.com 1.10,2013-01-01 10:08:00,
2013-01-01 05:23:00,20.0,17.0,29.76,NW,320,2.0,11.0,89,0.00,,,0.00,weatherlink.com 1.10,2013-01-01 10:23:00,
2013-01-01 05:38:00,18.7,16.0,29.77,WNW,285,3.0,11.0,89,0.00,,,0.00,weatherlink.com 1.10,2013-01-01 10:38:00,
2013-01-01 05:53:00,17.9,16.0,29.79,NW,304,2.0,6.0,90,0.00,,,0.00,weatherlink.com 1.10,2013-01-01 10:53:00,
2013-01-01 06:08:00,17.1,14.0,29.80,WNW,292,1.0,12.0,89,0.00,,,0.00,weatherlink.com 1.10,2013-01-01 11:08:00,
2013-01-01 06:23:00,16.5,14.0,29.81,NW,326,1.0,8.0,88,0.00,,,0.00,weatherlink.com 1.10,2013-01-01 11:23:00,
2013-01-01 06:38:00,16.0,13.0,29.81,WNW,300,3.0,11.0,88,0.00,,,0.00,weatherlink.com 1.10,2013-01-01 11:38:00,
2013-01-01 06:53:00,15.5,13.0,29.82,WNW,296,4.0,10.0,88,0.00,,,0.00,weatherlink.com 1.10,2013-01-01 11:53:00,
2013-01-01 07:09:00,14.9,12.0,29.82,WNW,293,0.0,11.0,87,0.00,,,0.00,weatherlink.com 1.10,2013-01-01 12:09:00,
2013-01-01 07:24:00,14.2,10.0,29.82,NNE,17,2.0,11.0,84,0.00,,,0.00,weatherlink.com 1.10,2013-01-01 12:24:00,
2013-01-01 07:39:00,13.8,9.0,29.83,West,275,0.0,15.0,82,0.00,,,0.00,weatherlink.com 1.10,2013-01-01 12:39:00,
2013-01-01 07:54:00,13.6,9.0,29.84,NW,321,3.0,11.0,83,0.00,,,0.00,weatherlink.com 1.10,2013-01-01 12:54:00,
2013-01-01 08:09:00,13.3,9.0,29.84,East,85,0.0,14.0,83,0.00,,,0.00,weatherlink.com 1.10,2013-01-01 13:09:00,
2013-01-01 08:24:00,12.5,9.0,29.84,NW,316,2.0,8.0,85,0.00,,,0.00,weatherlink.com 1.10,2013-01-01 13:24:00,
2013-01-01 08:39:00,12.0,8.0,29.85,WNW,301,6.0,10.0,85,0.00,,,0.00,weatherlink.com 1.10,2013-01-01 13:39:00,
2013-01-01 08:54:00,11.5,8.0,29.85,ENE,76,1.0,10.0,85,0.00,,,0.00,weatherlink.com 1.10,2013-01-01 13:54:00,
2013-01-01 09:09:00,11.5,8.0,29.84,WNW,300,0.0,8.0,85,0.00,,,0.00,weatherlink.com 1.10,2013-01-01 14:09:00,
2013-01-01 09:24:00,11.7,8.0,29.85,WNW,301,10.0,13.0,84,0.00,,,0.00,weatherlink.com 1.10,2013-01-01 14:24:00,
2013-01-01 09:39:00,11.9,8.0,29.86,NNW,330,3.0,7.0,84,0.00,,,0.00,weatherlink.com 1.10,2013-01-01 14:39:00,
2013-01-01 09:54:00,12.2,8.0,29.87,NW,304,2.0,8.0,83,0.00,,,0.00,weatherlink.com 1.10,2013-01-01 14:54:00,
2013-01-01 10:09:00,12.6,8.0,29.87,NW,316,2.0,8.0,81,0.00,,,0.00,weatherlink.com 1.10,2013-01-01 15:09:00,
2013-01-01 10:24:00,12.6,7.0,29.87,WNW,284,9.0,11.0,79,0.00,,,0.00,weatherlink.com 1.10,2013-01-01 15:24:00,
2013-01-01 10:39:00,11.4,6.0,29.87,WNW,293,6.0,11.0,80,0.00,,,0.00,weatherlink.com 1.10,2013-01-01 15:39:00,
2013-01-01 10:54:00,11.0,6.0,29.86,NNW,330,6.0,14.0,80,0.00,,,0.00,weatherlink.com 1.10,2013-01-01 15:54:00,
2013-01-01 11:09:00,11.2,6.0,29.85,WNW,284,8.0,11.0,80,0.00,,,0.00,weatherlink.com 1.10,2013-01-01 16:09:00,
2013-01-01 11:24:00,11.7,6.0,29.85,WNW,289,6.0,9.0,78,0.00,,,0.00,weatherlink.com 1.10,2013-01-01 16:24:00,
2013-01-01 11:39:00,12.1,6.0,29.86,WNW,301,7.0,11.0,77,0.00,,,0.00,weatherlink.com 1.10,2013-01-01 16:39:00,
2013-01-01 11:54:00,11.8,6.0,29.85,West,259,5.0,11.0,78,0.00,,,0.00,weatherlink.com 1.10,2013-01-01 16:54:00,
2013-01-01 12:09:00,12.1,7.0,29.85,WNW,288,2.0,12.0,78,0.00,,,0.00,weatherlink.com 1.10,2013-01-01 17:09:00,
2013-01-01 12:24:00,12.1,7.0,29.85,West,274,5.0,10.0,78,0.00,,,0.00,weatherlink.com 1.10,2013-01-01 17:24:00,
2013-01-01 12:39:00,12.2,6.0,29.85,WNW,283,5.0,9.0,77,0.00,,,0.00,weatherlink.com 1.10,2013-01-01 17:39:00,
2013-01-01 12:54:00,12.1,6.0,29.84,NE,39,1.0,9.0,75,0.00,,,0.00,weatherlink.com 1.10,2013-01-01 17:54:00,
2013-01-01 13:09:00,12.2,6.0,29.84,WNW,296,5.0,14.0,76,0.00,,,0.00,weatherlink.com 1.10,2013-01-01 18:09:00,
2013-01-01 13:24:00,12.3,6.0,29.84,WNW,301,6.0,12.0,76,0.00,,,0.00,weatherlink.com 1.10,2013-01-01 18:24:00,
2013-01-01 13:39:00,11.5,5.0,29.83,SW,233,1.0,6.0,75,0.00,,,0.00,weatherlink.com 1.10,2013-01-01 18:39:00,
2013-01-01 13:54:00,12.6,6.0,29.84,WNW,292,7.0,12.0,73,0.00,,,0.00,weatherlink.com 1.10,2013-01-01 18:54:00,
2013-01-01 14:09:00,12.3,4.0,29.84,NW,311,10.0,16.0,69,0.00,,,0.00,weatherlink.com 1.10,2013-01-01 19:09:00,
2013-01-01 14:24:00,12.5,3.0,29.84,WNW,291,3.0,18.0,67,0.00,,,0.00,weatherlink.com 1.10,2013-01-01 19:24:00,
2013-01-01 14:39:00,12.5,3.0,29.84,West,273,8.0,11.0,67,0.00,,,0.00,weatherlink.com 1.10,2013-01-01 19:39:00,
2013-01-01 14:54:00,12.3,4.0,29.84,WNW,288,3.0,12.0,69,0.00,,,0.00,weatherlink.com 1.10,2013-01-01 19:54:00,
2013-01-01 15:09:00,11.9,4.0,29.85,West,276,1.0,8.0,69,0.00,,,0.00,weatherlink.com 1.10,2013-01-01 20:09:00,
2013-01-01 15:24:00,11.1,3.0,29.84,WNW,296,3.0,10.0,69,0.00,,,0.00,weatherlink.com 1.10,2013-01-01 20:24:00,
2013-01-01 15:40:00,10.5,2.0,29.84,NW,315,3.0,13.0,69,0.00,,,0.00,weatherlink.com 1.10,2013-01-01 20:40:00,
2013-01-01 15:55:00,9.9,2.0,29.85,WNW,295,7.0,12.0,71,0.00,,,0.00,weatherlink.com 1.10,2013-01-01 20:55:00,
2013-01-01 16:10:00,9.1,2.0,29.86,NW,320,9.0,10.0,72,0.00,,,0.00,weatherlink.com 1.10,2013-01-01 21:10:00,
2013-01-01 16:25:00,8.7,1.0,29.86,North,349,4.0,7.0,72,0.00,,,0.00,weatherlink.com 1.10,2013-01-01 21:25:00,
2013-01-01 16:40:00,8.4,1.0,29.87,NW,304,6.0,12.0,72,0.00,,,0.00,weatherlink.com 1.10,2013-01-01 21:40:00,
2013-01-01 16:55:00,7.8,1.0,29.87,West,272,6.0,7.0,73,0.00,,,0.00,weatherlink.com 1.10,2013-01-01 21:55:00,
2013-01-01 17:10:00,7.6,1.0,29.88,NW,316,0.0,8.0,74,0.00,,,0.00,weatherlink.com 1.10,2013-01-01 22:10:00,
2013-01-01 17:25:00,7.4,1.0,29.88,West,263,5.0,10.0,74,0.00,,,0.00,weatherlink.com 1.10,2013-01-01 22:25:00,
2013-01-01 17:40:00,7.2,0.0,29.89,WNW,301,3.0,10.0,73,0.00,,,0.00,weatherlink.com 1.10,2013-01-01 22:40:00,
2013-01-01 17:55:00,6.9,0.0,29.89,West,267,6.0,9.0,74,0.00,,,0.00,weatherlink.com 1.10,2013-01-01 22:55:00,
2013-01-01 18:10:00,6.3,0.0,29.89,SW,219,0.0,5.0,75,0.00,,,0.00,weatherlink.com 1.10,2013-01-01 23:10:00,
2013-01-01 18:25:00,6.1,0.0,29.90,SSW,193,2.0,5.0,75,0.00,,,0.00,weatherlink.com 1.10,2013-01-01 23:25:00,
2013-01-01 18:40:00,5.8,-1.0,29.91,NW,316,0.0,4.0,75,0.00,,,0.00,weatherlink.com 1.10,2013-01-01 23:40:00,
2013-01-01 18:55:00,5.4,-1.0,29.92,WNW,293,0.0,3.0,76,0.00,,,0.00,weatherlink.com 1.10,2013-01-01 23:55:00,
2013-01-01 19:10:00,4.8,-1.0,29.93,NNW,340,0.0,1.0,77,0.00,,,0.00,weatherlink.com 1.10,2013-01-02 00:10:00,
2013-01-01 19:28:00,4.9,-1.0,29.93,NW,309,0.0,4.0,78,0.00,,,0.00,weatherlink.com 1.10,2013-01-02 00:28:00,
2013-01-01 19:41:00,4.9,-1.0,29.94,West,271,1.0,8.0,78,0.00,,,0.00,weatherlink.com 1.10,2013-01-02 00:41:00,
2013-01-01 19:56:00,4.8,0.0,29.94,NW,321,0.0,5.0,79,0.00,,,0.00,weatherlink.com 1.10,2013-01-02 00:56:00,
2013-01-01 20:11:00,4.9,-1.0,29.94,NNE,22,0.0,5.0,78,0.00,,,0.00,weatherlink.com 1.10,2013-01-02 01:11:00,
2013-01-01 20:26:00,4.2,-1.0,29.93,NNE,16,0.0,2.0,80,0.00,,,0.00,weatherlink.com 1.10,2013-01-02 01:26:00,
2013-01-01 20:41:00,4.3,-1.0,29.93,WNW,292,0.0,5.0,79,0.00,,,0.00,weatherlink.com 1.10,2013-01-02 01:41:00,
2013-01-01 20:56:00,4.1,-1.0,29.93,WSW,255,0.0,3.0,80,0.00,,,0.00,weatherlink.com 1.10,2013-01-02 01:56:00,
2013-01-01 21:11:00,4.0,-1.0,29.93,West,267,0.0,1.0,80,0.00,,,0.00,weatherlink.com 1.10,2013-01-02 02:11:00,
2013-01-01 21:26:00,3.5,-1.0,29.93,ESE,107,0.0,1.0,82,0.00,,,0.00,weatherlink.com 1.10,2013-01-02 02:26:00,
2013-01-01 21:41:00,3.5,-1.0,29.93,ESE,115,0.0,2.0,83,0.00,,,0.00,weatherlink.com 1.10,2013-01-02 02:41:00,
2013-01-01 21:56:00,3.0,-1.0,29.93,East,96,0.0,1.0,83,0.00,,,0.00,weatherlink.com 1.10,2013-01-02 02:56:00,
2013-01-01 22:11:00,2.8,-1.0,29.93,East,90,0.0,1.0,84,0.00,,,0.00,weatherlink.com 1.10,2013-01-02 03:11:00,
2013-01-01 22:26:00,2.2,-1.0,29.93,East,85,0.0,1.0,85,0.00,,,0.00,weatherlink.com 1.10,2013-01-02 03:26:00,
2013-01-01 22:41:00,2.1,-1.0,29.94,East,79,1.0,1.0,85,0.00,,,0.00,weatherlink.com 1.10,2013-01-02 03:41:00,
2013-01-01 22:57:00,2.5,-1.0,29.94,East,79,0.0,1.0,86,0.00,,,0.00,weatherlink.com 1.10,2013-01-02 03:57:00,
2013-01-01 23:12:00,3.6,0.0,29.94,East,79,0.0,1.0,86,0.00,,,0.00,weatherlink.com 1.10,2013-01-02 04:12:00,
2013-01-01 23:27:00,4.7,1.0,29.93,East,82,0.0,1.0,85,0.00,,,0.00,weatherlink.com 1.10,2013-01-02 04:27:00,
2013-01-01 23:42:00,5.3,2.0,29.93,East,80,0.0,1.0,84,0.00,,,0.00,weatherlink.com 1.10,2013-01-02 04:42:00,
2013-01-01 23:57:00,5.7,1.0,29.93,SE,133,0.0,0.0,82,0.00,,,0.00,weatherlink.com 1.10,2013-01-02 04:57:00,